www.pogodaiklimat.ru

Погода и климат >> Архив погоды >> Норвегия >> Мосстранд


ПОГОДА в Мосстранде

  • Прогноз погоды в Мосстранде
  • Монитор погоды в Мосстранде

АРХИВ ПОГОДЫ в Мосстранде

Время (UTC), дата Ветер
(напр.,м/с)
 
Видим.   Явления Облачность Т
(С)
Тd
(С)
f
(%)
Тe
(С)
Тes
(С)
Комфортность P
(гПа)
Po
(гПа)
Тmin
(С)
Tmax
(С)
R
(мм)
R24
(мм)
S
(см)
01 18.08 З 5-7
{7}
н/о н/о +6.0 +3.5 84 +2 +2 1001.3 889.9
02 18.08 Ю 3-4
{6}
н/о н/о +5.9 +3.9 87 +3 +3 1001.7 890.2
03 18.08 ЮЗ 4-5
{6}
н/о н/о +5.2 +3.1 86 +1 +1 1001.8 890.1
04 18.08 ЮЗ 4-5
{5}
н/о н/о +5.2 +3.7 90 +1 +1 1002.1 890.4
05 18.08 Ю 2-3
{4}
н/о н/о +5.5 +4.0 90 +3 +3 1002.2 890.5
06 18.08 ЮЗ 4-5
{7}
н/о н/о +6.5 +3.8 83 +3 +3 1002.0 890.7 +4.8 +11.8 0.2
07 18.08 Ю 2-2
{5}
н/о н/о +7.3 +4.8 84 +5 +5 1001.7 890.7
08 18.08 ЮЗ 4-7
{7}
н/о н/о +8.7 +5.6 81 +6 +6 1001.0 890.7
09 18.08 Ю 5-8
{8}
н/о н/о +8.5 +5.1 79 +5 +5 1001.5 891.0
10 18.08 ЮЗ 5-7
{9}
н/о н/о +7.4 +5.7 89 +3 +3 1001.9 891.0
11 18.08 Ю 3-6
{6}
н/о н/о +10.7 +6.5 75 +9 +9 1000.2 890.7
12 18.08 Ю 6-8
{9}
н/о н/о +11.0 +4.9 66 +8 +8 999.6 890.3
13 18.08 Ю 5-8
{9}
н/о н/о +10.5 +5.7 72 +8 +8 1000.1 890.5
14 18.08 Ю 5-7
{9}
н/о н/о +10.7 +6.1 73 +8 +8 999.8 890.3
15 18.08 Ю 5-7
{9}
н/о н/о +10.6 +5.2 69 +8 +8 999.6 890.1
16 18.08 ЮЗ 3-5
{10}
н/о н/о +9.1 +5.5 78 +7 +7 1000.3 890.2
17 18.08 Ю 4-7
{8}
н/о н/о +8.4 +6.9 90 +5 +5 1000.1 889.7
18 18.08 ЮВ 4-5
{10}
н/о н/о +7.8 +6.4 91 +4 +4 1000.2 889.6 +6.5 +12.5 0.8
19 18.08 ЮВ 2-3
{6}
н/о н/о +7.7 +6.3 91 +6 +6 999.9 889.3
20 18.08 Ю 3-6
{6}
н/о н/о +7.6 +6.4 92 +5 +5 999.9 889.3
21 18.08 Ю 5-7
{8}
н/о н/о +7.0 +6.0 93 +3 +3 1000.0 889.1 1
22 18.08 ЮЗ 3-4
{7}
н/о н/о +6.4 +5.7 95 +3 +3 1000.3 889.2
23 18.08 Ю 3-5
{5}
н/о н/о +6.2 +5.5 95 +3 +3 1000.3 889.1
00 19.08 ЮЗ 3-4
{8}
н/о н/о +5.7 +5.0 95 +2 +2 1000.4 889.0
01 19.08 ЮЗ 4-5
{6}
н/о н/о +6.1 +5.7 97 +2 +2 1000.4 889.2
02 19.08 Ю 3-5
{6}
н/о н/о +5.7 +5.1 96 +2 +2 1000.3 888.9
03 19.08 Ю 3-4
{6}
н/о н/о +5.9 +5.5 97 +2 +2 1000.4 889.1
04 19.08 Ю 6-8
{8}
н/о н/о +6.5 +5.9 96 +2 +2 999.8 888.8
05 19.08 Ю 4-6
{8}
н/о н/о +6.8 +6.2 96 +3 +3 1000.0 889.1
06 19.08 Ю 5-7
{8}
н/о н/о +7.5 +6.4 93 +3 +3 999.9 889.2 +5.5 +7.8 4
07 19.08 Ю 5-8
{10}
н/о н/о +7.9 +6.7 92 +4 +4 999.8 889.3
08 19.08 ЮЗ 6-10
{10}
н/о н/о +9.3 +6.6 83 +6 +6 999.5 889.6
09 19.08 ЮЗ 7-9
{10}
н/о н/о +9.0 +5.9 81 +5 +5 999.9 889.8
10 19.08 ЮЗ 7-10
{11}
н/о н/о +9.1 +6.9 86 +5 +5 1000.5 890.3
11 19.08 ЮЗ 6-8
{10}
н/о н/о +8.5 +7.6 94 +4 +4 1001.4 890.9 1
12 19.08 З 6-9
{11}
н/о н/о +9.5 +8.7 95 +6 +6 1001.6 891.4 1
13 19.08 ЮЗ 7-10
{13}
н/о н/о +10.5 +6.8 78 +7 +7 1001.7 891.9
14 19.08 З 7-11
{13}
н/о н/о +11.3 +6.3 71 +8 +8 1002.3 892.7
15 19.08 З 6-10
{12}
н/о н/о +10.3 +6.3 76 +7 +7 1003.1 893.1
16 19.08 З 6-9
{10}
н/о н/о +11.3 +6.0 70 +8 +8 1003.6 893.9
17 19.08 З 4-6
{8}
н/о н/о +9.3 +5.9 79 +6 +6 1005.0 894.4
18 19.08 ЮЗ 6-8
{13}
н/о н/о +9.5 +5.5 76 +6 +6 1005.1 894.6 +7.4 +12.2 3
19 19.08 З 4-6
{8}
н/о н/о +8.2 +5.8 85 +5 +5 1006.3 895.2
20 19.08 ЮЗ 4-5
{7}
н/о н/о +7.7 +5.5 86 +4 +4 1007.2 895.8
21 19.08 ЮЗ 4-6
{6}
н/о н/о +7.6 +6.1 90 +4 +4 1007.5 896.0
22 19.08 ЮЗ 5-6
{7}
н/о н/о +7.4 +5.9 90 +3 +3 1007.8 896.2
23 19.08 ЮЗ 4-6
{8}
н/о н/о +6.9 +5.7 92 +3 +3 1008.3 896.5
00 20.08 ЮЗ 3-4
{8}
н/о н/о +7.1 +5.1 87 +4 +4 1008.4 896.6
01 20.08 ЮЗ 3-5
{6}
н/о н/о +6.5 +5.0 90 +3 +3 1008.7 896.7
02 20.08 ЮЗ 3-5
{6}
н/о н/о +6.7 +5.2 90 +4 +4 1008.9 896.9
03 20.08 ЮЗ 7-8
{8}
н/о н/о +6.6 +5.2 91 +2 +2 1009.0 897.0
04 20.08 ЮЗ 5-6
{8}
н/о н/о +6.8 +5.6 92 +3 +3 1009.4 897.4
05 20.08 ЮЗ 4-5
{7}
н/о н/о +6.9 +5.5 91 +3 +3 1009.9 897.9
06 20.08 ЮЗ 4-5
{8}
н/о н/о +7.2 +5.8 91 +4 +4 1010.4 898.4 +6.2 +9.5
07 20.08 ЮЗ 4-6
{6}
н/о н/о +7.8 +6.6 92 +4 +4 1010.5 898.7
08 20.08 ЮЗ 5-8
{8}
н/о н/о +8.8 +6.6 86 +5 +5 1010.5 899.1
09 20.08 ЮЗ 5-8
{9}
н/о н/о +9.5 +5.9 78 +6 +6 1010.6 899.5
10 20.08 ЮЗ 7-9
{10}
н/о н/о +10.6 +5.8 72 +7 +7 1010.4 899.7
11 20.08 З 5-8
{9}
н/о н/о +8.1 +7.0 93 +4 +4 1012.0 900.2 1
12 20.08 З 6-8
{10}
н/о н/о +10.2 +7.6 84 +7 +7 1011.5 900.5
13 20.08 ЮЗ 5-8
{9}
н/о н/о +10.2 +7.1 81 +7 +7 1011.9 900.9
14 20.08 З 6-9
{9}
н/о н/о +10.9 +5.9 71 +8 +8 1011.6 900.9
15 20.08 З 6-9
{12}
н/о н/о +10.4 +6.9 79 +7 +7 1012.4 901.4
16 20.08 З 7-10
{10}
н/о н/о +9.7 +5.7 76 +6 +6 1013.1 901.8
17 20.08 З 7-10
{11}
н/о н/о +9.9 +5.5 74 +6 +6 1013.5 902.2
18 20.08 З 5-7
{12}
н/о н/о +9.8 +5.0 72 +7 +7 1014.1 902.7 +7.2 +11.5 1
19 20.08 З 5-7
{7}
н/о н/о +7.2 +4.3 82 +3 +3 1015.7 903.2
20 20.08 ЮЗ 2-3
{6}
н/о н/о +7.3 +5.0 85 +5 +5 1016.4 903.8
21 20.08 З 4-5
{5}
н/о н/о +6.8 +5.0 88 +3 +3 1016.6 903.8
22 20.08 З 3-4
{5}
н/о н/о +7.4 +4.9 84 +5 +5 1016.8 904.2
23 20.08 СЗ 4-7
{7}
н/о н/о +7.4 +3.7 77 +4 +4 1017.1 904.5
00 21.08 СЗ 5-8
{9}
н/о н/о +6.0 +2.1 76 +2 +2 1018.2 904.9
01 21.08 СЗ 3-4
{7}
н/о н/о +5.9 +2.2 77 +3 +3 1018.6 905.3
02 21.08 С 4-5
{6}
н/о н/о +6.5 +2.6 76 +3 +3 1018.7 905.6
03 21.08 СЗ 4-7
{7}
н/о н/о +6.8 +2.5 74 +3 +3 1018.9 905.9
04 21.08 С 3-5
{6}
н/о н/о +6.6 +2.3 74 +4 +4 1019.5 906.3
05 21.08 С 6-9
{9}
н/о н/о +6.7 +1.0 67 +2 +2 1019.8 906.6
06 21.08 С 5-7
{9}
н/о н/о +7.1 +1.6 68 +3 +3 1020.2 907.1 +5.4 +9.8
07 21.08 СЗ 5-9
{9}
н/о н/о +7.8 +1.7 65 +4 +4 1020.2 907.4
08 21.08 СЗ 5-8
{9}
н/о н/о +8.4 +2.0 64 +5 +5 1020.2 907.6
09 21.08 СЗ 4-7
{8}
н/о н/о +9.6 +1.8 58 +7 +7 1020.0 907.9
10 21.08 СЗ 3-5
{7}
н/о н/о +10.8 +2.7 57 +9 +9 1019.8 908.1
11 21.08 СЗ 3-5
{6}
н/о н/о +11.3 +2.6 55 +10 +10 1019.7 908.2
12 21.08 СЗ 2-4
{9}
н/о н/о +13.3 +3.1 50 +13 +13 1018.9 908.2
13 21.08 З 2-5
{5}
н/о н/о +14.3 +4.3 51 +14 +14 1018.4 908.1
14 21.08 СЗ 3-5
{6}
н/о н/о +14.2 +2.5 45 +13 +13 1018.4 908.2
15 21.08 СЗ 4-7
{7}
н/о н/о +11.5 +2.3 53 +10 +10 1019.7 908.3
16 21.08 СЗ 5-7
{7}
н/о н/о +12.5 +3.2 53 +11 +11 1019.1 908.2
17 21.08 З 5-7
{8}
н/о н/о +11.3 +2.9 56 +9 +9 1019.8 908.3
18 21.08 СЗ 5-7
{8}
н/о н/о +9.7 +2.6 61 +7 +7 1020.5 908.4 +7.1 +15.6
19 21.08 З 4-5
{7}
н/о н/о +7.2 +1.9 69 +4 +4 1021.7 908.5
20 21.08 З 3-4
{5}
н/о н/о +5.9 +2.6 79 +3 +3 1022.5 908.7
21 21.08 ЮЗ 3-4
{4}
н/о н/о +5.5 +2.9 83 +2 +2 1022.8 908.8
22 21.08 ЮЗ 4-5
{6}
н/о н/о +4.8 +2.7 86 +1 +1 1023.1 908.8
23 21.08 ЮЗ 3-4
{4}
н/о н/о +4.7 +2.6 86 +1 +1 1023.1 908.8
00 22.08 ЮЗ 3-4
{7}
н/о н/о +4.5 +2.4 86 +1 +1 1023.1 908.7
01 22.08 В 2-3
{3}
н/о н/о +4.3 +3.1 92 +1 +1 1022.9 908.4
02 22.08 Ю 2-2
{4}
н/о н/о +3.6 +2.3 91 +1 +1 1023.0 908.3
03 22.08 ЮВ 2-3
{3}
н/о н/о +4.8 +3.8 93 +2 +2 1021.8 907.7
04 22.08 ЮВ 1-2
{3}
н/о н/о +4.9 +3.9 93 +3 +3 1021.2 907.2
05 22.08 ЮВ 1-2
{3}
н/о н/о +5.4 +4.5 94 +4 +4 1020.4 906.7
06 22.08 Ю 2-4
{4}
н/о н/о +6.3 +5.7 96 +4 +4 1019.6 906.3 +3.2 +9.7
07 22.08 Ю 5-7
{7}
н/о н/о +6.9 +6.5 97 +3 +3 1018.9 905.9
08 22.08 Ю 5-6
{8}
н/о н/о +7.3 +6.7 96 +3 +3 1018.2 905.4
09 22.08 Ю 5-8
{9}
н/о н/о +7.8 +6.9 94 +4 +4 1017.4 904.9 1
10 22.08 Ю 6-9
{9}
н/о н/о +8.1 +7.2 94 +4 +4 1016.6 904.3 2
11 22.08 ЮЗ 5-7
{11}
н/о н/о +7.4 +6.7 95 +3 +3 1016.7 904.1 2
12 22.08 ЮЗ 4-6
{11}
н/о н/о +7.6 +6.2 91 +4 +4 1016.1 903.7 3
13 22.08 ЮЗ 4-6
{7}
н/о н/о +8.0 +7.3 95 +5 +5 1015.8 903.5 0.5
14 22.08 ЮЗ 3-5
{7}
н/о н/о +8.8 +7.3 90 +6 +6 1015.1 903.2
15 22.08 ЮЗ 5-6
{7}
н/о н/о +9.1 +7.7 91 +6 +6 1015.1 903.3
16 22.08 ЮЗ 5-8
{9}
н/о н/о +9.4 +7.9 90 +6 +6 1014.8 903.2
17 22.08 ЮЗ 4-6
{8}
н/о н/о +9.2 +7.2 87 +6 +6 1015.0 903.3
18 22.08 ЮЗ 5-7
{9}
н/о н/о +8.1 +5.4 83 +4 +4 1015.6 903.4 +6.3 +10.6 10
19 22.08 ЮЗ 6-9
{9}
н/о н/о +6.9 +3.5 79 +3 +3 1016.6 903.9
20 22.08 З 3-7
{7}
н/о н/о +6.7 +3.0 77 +4 +4 1016.5 903.7
21 22.08 Ю 3-4
{7}
н/о н/о +6.2 +4.0 86 +3 +3 1016.7 903.7
22 22.08 ЮЗ 4-6
{6}
н/о н/о +6.6 +5.1 90 +3 +3 1016.2 903.4
23 22.08 Ю 2-4
{6}
н/о н/о +6.6 +5.2 91 +4 +4 1015.9 903.1
00 23.08 ЮЗ 3-5
{9}
н/о н/о +7.2 +6.2 93 +4 +4 1015.4 902.9
01 23.08 ЮВ 2-4
{4}
н/о н/о +6.9 +6.2 95 +5 +5 1014.8 902.3
02 23.08 Ю 3-5
{5}
н/о н/о +7.6 +6.9 95 +5 +5 1014.0 901.8
03 23.08 ЮЗ 4-7
{7}
н/о н/о +7.7 +7.3 97 +4 +4 1013.8 901.7 2
04 23.08 Ю 3-5
{8}
н/о н/о +8.3 +7.6 95 +5 +5 1013.8 901.9
05 23.08 ЮЗ 5-7
{7}
н/о н/о +9.3 +7.4 88 +6 +6 1013.5 902.0
06 23.08 ЮЗ 5-8
{9}
н/о н/о +9.4 +7.2 86 +6 +6 1013.9 902.4 +6.0 +9.5 3
07 23.08 З 8-12
{15}
н/о н/о +9.6 +7.4 86 +5 +5 1014.2 902.7
08 23.08 З 7-12
{17}
н/о н/о +10.9 +5.5 69 +8 +8 1014.4 903.4
09 23.08 З 10-15
{15}
н/о н/о +11.8 +5.5 65 +8 +8 1014.2 903.5
10 23.08 З 9-12
{15}
н/о н/о +12.0 +5.6 65 +9 +9 1015.1 904.4
11 23.08 З 6-9
{10}
н/о н/о +11.8 +5.0 63 +9 +9 1016.1 905.2
12 23.08 З 8-13
{17}
н/о н/о +13.7 +5.6 58 +11 +11 1016.2 905.9
13 23.08 З 9-13
{13}
н/о н/о +14.3 +4.6 52 +12 +12 1016.4 906.4
14 23.08 З 7-10
{14}
н/о н/о +13.6 +5.5 58 +11 +11 1017.4 907.0
15 23.08 СЗ 8-11
{12}
н/о н/о +12.5 +3.5 54 +10 +10 1017.9 907.1
16 23.08 СЗ 5-7
{10}
н/о н/о +12.3 +5.7 64 +10 +10 1018.4 907.4
17 23.08 З 5-8
{8}
н/о н/о +11.8 +7.3 74 +9 +9 1018.9 907.7
18 23.08 З 5-7
{14}
н/о н/о +10.7 +7.8 82 +8 +8 1019.8 908.1 +9.3 +14.5
19 23.08 З 3-4
{6}
н/о н/о +10.2 +7.6 84 +8 +8 1020.6 908.6
20 23.08 Ю 2-4
{4}
н/о н/о +9.7 +7.8 88 +8 +8 1021.0 908.8
21 23.08 ЮЗ 3-3
{3}
н/о н/о +9.4 +7.9 90 +7 +7 1021.5 909.2
22 23.08 ЮЗ 5-7
{7}
н/о н/о +10.4 +8.3 87 +7 +7 1021.4 909.4
23 23.08 ЮЗ 3-4
{6}
н/о н/о +10.6 +8.7 88 +9 +9 1021.7 909.8
00 24.08 ЮЗ 4-5
{7}
н/о н/о +10.6 +8.7 88 +8 +8 1022.2 910.2
01 24.08 З 3-6
{8}
н/о н/о +10.4 +8.5 88 +8 +8 1022.5 910.4
02 24.08 Ю 3-4
{6}
н/о н/о +9.9 +8.3 90 +8 +8 1023.1 910.8
03 24.08 ЮЗ 3-4
{4}
н/о н/о +9.3 +8.2 93 +7 +7 1023.7 911.1
04 24.08 ЮЗ 2-3
{4}
н/о н/о +9.1 +8.3 95 +7 +7 1024.0 911.3
05 24.08 Ю 1-2
{4}
н/о н/о +8.9 +8.3 96 +8 +8 1024.7 911.8
06 24.08 В 1-1
{8}
н/о н/о +10.2 +9.4 95 +10 +10 1024.4 912.0 +8.6 +11.0
07 24.08 ЮВ 2-3
{3}
н/о н/о +11.0 +9.6 91 +10 +10 1024.4 912.3
08 24.08 В 1-2
{2}
н/о н/о +14.7 +10.5 76 +15 +15 1023.3 912.6
09 24.08 З 3-6
{8}
н/о н/о +15.3 +9.7 69 +15 +15 1023.5 913.0
10 24.08 Ю 2-3
{6}
н/о н/о +17.2 +8.6 57 +18 +18 1022.5 912.9
11 24.08 ЮЗ 4-6
{6}
н/о н/о +15.3 +10.5 73 +14 +14 1023.3 912.9
12 24.08 З 5-8
{8}
н/о н/о +16.6 +10.2 66 +16 +16 1023.1 913.2
13 24.08 ЮЗ 4-5
{8}
н/о н/о +15.8 +10.4 70 +15 +15 1023.5 913.3
14 24.08 ЮЗ 4-7
{7}
н/о н/о +16.3 +11.3 72 +16 +16 1023.1 913.0
15 24.08 ЮЗ 3-5
{7}
н/о н/о +16.5 +10.8 69 +16 +16 1022.8 912.9
16 24.08 ЮЗ 5-8
{8}
н/о н/о +16.0 +11.0 72 +15 +15 1023.1 912.9
17 24.08 ЮЗ 6-8
{8}
н/о н/о +16.0 +10.8 71 +15 +15 1022.9 912.8
18 24.08 ЮЗ 4-6
{8}
н/о н/о +14.5 +10.7 78 +13 +13 1023.4 912.7 +10.2 +17.3
19 24.08 ЮЗ 4-5
{6}
н/о н/о +13.5 +10.7 83 +12 +12 1024.1 913.0
20 24.08 ЮВ 2-4
{5}
н/о н/о +12.8 +10.7 87 +12 +12 1024.4 913.0
21 24.08 Ю 2-3
{4}
н/о н/о +13.0 +10.4 84 +12 +12 1024.1 912.8
22 24.08 ЮЗ 4-5
{5}
н/о н/о +12.3 +10.4 88 +10 +10 1024.5 912.9
23 24.08 ЮЗ 5-7
{7}
н/о н/о +12.0 +9.9 87 +9 +9 1024.6 912.9
00 25.08 ЮЗ 5-7
{7}
н/о н/о +11.9 +9.6 86 +9 +9 1024.7 912.9
01 25.08 ЮЗ 4-5
{7}
н/о н/о +11.9 +9.6 86 +10 +10 1024.5 912.7

 

Местоположение метеостанции Мосстранд (Норвегия): широта 59.83 долгота 8.18 высота над уровнем моря 977 м.

В архиве по умолчанию представлена погода в Мосстранде за последнюю неделю. Архивные данные за месяц целиком и за предыдущие месяцы, начиная с января 2011 года, Вы можете получить, выбрав интересующий диапазон дат из раскрывающегося списка и нажав кнопку "Ввод!".


*Определитесь, кто Вы:
робот инопланетянин человек

Внимание! Время в таблицах - всемирное. Для получения местного времени необходимо прибавить поправку, которая равна 1 ч.

Смотрите также архив погоды в соседних городах и на ближайших метеорологических станциях:

Погода на Гаустатоппене (Норвегия) (27 км)
Погода в Хойдалсмо (Норвегия) (37 км)
Погода в Вагсли (Норвегия) (46 км)
Погода в Ховдене (Норвегия) (53 км)
Погода в Хаукелисетере (Норвегия) (55 км)
Погода в Сандхау (Норвегия) (55 км)
Погода в Веггли (Норвегия) (59 км)
Погода в Гейло аэропорту (Норвегия) (68 км)
Погода во Гварве (Норвегия) (77 км)
Погода в Гейло (Норвегия) (78 км)

Пояснения к столбцам:

Ветер - указаны скорость ветра в м/с - средняя за 10 мин, порывы в срок и между сроками (в фигурных скобках) и направление, откуда дует ветер: С - северный, СВ - северо-восточный, В - восточный, ЮВ - юго-восточный, Ю - южный, ЮЗ - юго-западный, З - западный, СЗ - северо-западный.
Видимость - горизонтальная дальность видимости в метрах или километрах. При видимости от 1 до 10 км при отсутствии осадков обычно наблюдается дымка, при ухудшении видимости до 1 км и менее - туман. В сухую погоду видимость может ухудшаться дымом, пылью или мглою.
Явления - указаны атмосферные явления, наблюдавшиеся в срок или в последний час перед сроком; фигурными скобками обозначены явления, наблюдавшиеся между сроками (за 1-3 часа до срока); квадратными скобками обозначены град или гололедные отложения с указанием их диаметра в мм.
Облачность - указаны через наклонную черту общая и нижняя облачность в баллах и высота нижней границы облаков в метрах; квадратными скобками обозначены формы облаков: Ci - перистые, Cs - перисто-слоистые, Cc - перисто-кучевые, Ac - высококучевые, As - высокослоистые, Sc - слоисто-кучевые, Ns - слоисто-дождевые, Cu - кучевые, Cb - кучево-дождевые. Подробнее классификацию облаков см. в Атласе облаков (PDF).
T - Температура воздуха - температура, измеренная на высоте 2 м над землей.
Td - Температура точки росы - температура, при понижении до которой содержащийся в воздухе водяной пар достигнет насыщения.
f - Относительная влажность воздуха - влажноcть воздуха, измеренная на высоте 2 м над землей.
Te - Эффективная температура - температура, которую ощущает одетый по сезону человек в тени. Характеристика душности погоды. При расчете учитывается влияние влажности воздуха и скорости ветра на теплоощущения человека.
Tes - Эффективная температура на солнце - температура, которую ощущает человек, с поправкой на солнечный нагрев. Характеристика знойности погоды. Зависит от высоты солнца над горизонтом, облачности и скорости ветра. Ночью, в пасмурную погоду, а также при ветре 12 м/с и более поправка равна нулю.
P - Атмосферное давление - приведенное к уровню моря атмосферное давление.
Po - Атмосферное давление - измеренное на уровне метеостанции атмосферное давление.
Tmin - Минимальная температура - минимум температуры воздуха на высоте 2 м над землей.
Tmax - Максимальная температура - максимум температуры воздуха на высоте 2 м над землей.
R - Количество осадков - Количество выпавших осадков за период времени, мм. При наведении курсора мыши на число - период времени, за который выпало указанное количество осадков.
R24 - Количество осадков - Количество выпавших осадков за 24 часа, мм.
S - Снежный покров - Высота снежного покрова, см. При наведении курсора мыши на число - состояние снежного покрова и степень покрытия местности в баллах.